Home > Time Zones > World Clock > Weather > U.S.A. > Bend > Past weeks

Flag Weather past 2 weeks in Bend, Oregon, U.S.A.

Now
45 °F

Partly cloudy.


Feels Like: 42 °F
Forecast: 41 / 54 °F
Wind: 6 mph from South

Location: Roberts Field Airport

Current Time: Nov 24, 2014 at 6:12:49 PM

Latest Report: Nov 24, 2014 at 4:56 PM


Visibility: 10 mi

Pressure: 30.29 "Hg

Humidity: 60%

Dew point: 32 °F

Location of BendLocation

Historic Weather in Bend — Graph

°F

Bend temperature yesterday

Maximum temperature yesterday: 48 °F (at 1:56 PM)
Minimum temperature yesterday: 24 °F (at 6:56 AM)
Average temperature yesterday: 36 °F

Past Weeks' High & Low Weather Summary

 TemperatureHumidityPressure
High50 °F (Nov 9, 4:56 PM)100% (Nov 15, 4:56 PM)30.76 "Hg (Nov 15, 4:56 PM)
Low-18 °F (Nov 16, 2:56 AM)43% (Nov 10, 2:56 PM)29.55 "Hg (Nov 21, 8:56 PM)
Average23 °F80%30.23 "Hg
* Reported Nov 9 4:56 PM — Nov 24 4:56 PM, Bend, Weather by CustomWeather, © 2014

Note: Actual official high and low records may vary slightly from our data, if they occured in-between our weather recording intervals... More about our weather records

Advertising

Bend weather history for previous 24 hours

 ConditionsComfort  
Time TempWeatherWind HumidityBarometerVisibility
4:56 PM
Nov 24
45 °FPartly cloudy.6 mph60%30.29 "Hg10 mi
3:56 PM47 °FOvercast.5 mph52%30.30 "Hg10 mi
2:56 PM47 °FPartly sunny.3 mph52%30.32 "Hg10 mi
1:56 PM48 °FPassing clouds.6 mph48%30.33 "Hg10 mi
12:56 PM47 °FSunny.7 mph52%30.35 "Hg10 mi
11:56 AM47 °FSunny.5 mph54%30.38 "Hg10 mi
10:56 AM42 °FSunny.10 mph62%30.40 "Hg10 mi
9:56 AM40 °FSunny.12 mph65%30.43 "Hg10 mi
8:56 AM35 °FSunny.7 mph82%30.44 "Hg10 mi
7:56 AM31 °FSunny.5 mph89%30.44 "Hg10 mi
6:56 AM28 °FClear.3 mph93%30.42 "Hg10 mi
5:56 AM32 °FClear.9 mph85%30.42 "Hg10 mi
4:56 AM32 °FClear.10 mph85%30.41 "Hg10 mi
3:56 AM30 °FClear.No wind92%30.40 "Hg10 mi
2:56 AM30 °FClear.3 mph92%30.39 "Hg10 mi
1:56 AM31 °FPassing clouds.No wind92%30.37 "Hg10 mi
12:56 AM31 °FPassing clouds.6 mph92%30.36 "Hg10 mi
11:56 PM
Nov 23
32 °FClear.3 mph88%30.33 "Hg10 mi
10:56 PM32 °FPassing clouds.5 mph88%30.34 "Hg10 mi
9:56 PM33 °FPassing clouds.No wind85%30.33 "Hg10 mi
8:56 PM32 °FPassing clouds.No wind85%30.34 "Hg10 mi
7:56 PM35 °FPassing clouds.3 mph75%30.34 "Hg10 mi
6:56 PM38 °FPassing clouds.No wind70%30.32 "Hg10 mi
Weather by CustomWeather, © 2014

See weather overviewHow to use our weather pages